FW0143 Weather Reports


Display with metric or nautical units.
time (UTC)temp
F
wind
direction
speed
MPH
gust
MPH
rain 1hr
in
rain 24hr
in
rain mn
in
humidity
%
barometer
mb
20201127020807 34 191 9.0 13.0 0.00 0.07 0.07 1 1021.3
20201127020305 34 176 9.0 13.0 0.00 0.07 0.07 1 1021.0
20201127015806 34 180 10.0 13.0 0.00 0.07 0.07 1 1021.0
20201127015304 34 175 8.0 11.0 0.00 0.07 0.07 1 1021.3
20201127014801 34 182 9.0 11.0 0.00 0.07 0.07 1 1021.3
20201127014300 34 181 10.0 13.0 0.00 0.07 0.07 1 1021.3
20201127013801 34 178 9.0 13.0 0.00 0.07 0.07 1 1021.3
20201127013302 34 171 9.0 11.0 0.00 0.07 0.07 1 1021.3
20201127012758 34 176 10.0 12.0 0.00 0.07 0.07 1 1021.3
20201127012259 34 172 11.0 12.0 0.00 0.07 0.07 1 1021.3
20201127011800 34 167 9.0 11.0 0.00 0.07 0.07 1 1021.3
20201127011258 34 183 11.0 11.0 0.00 0.07 0.07 1 1021.3
20201127010756 34 179 9.0 11.0 0.00 0.07 0.07 1 1021.3
20201127010255 34 183 8.0 11.0 0.00 0.07 0.07 1 1021.3
20201127005756 34 171 9.0 12.0 0.00 0.07 0.07 1 1021.0
20201127005252 34 177 9.0 12.0 0.00 0.07 0.07 1 1021.0
20201127004752 34 194 9.0 11.0 0.00 0.07 0.07 1 1021.3
20201127004250 34 183 9.0 11.0 0.00 0.07 0.07 1 1021.0
20201127003751 34 199 8.0 11.0 0.00 0.07 0.07 1 1021.0
20201127003248 34 185 8.0 10.0 0.00 0.07 0.07 1 1021.3
20201127002747 35 193 7.0 11.0 0.00 0.07 0.07 1 1021.0
20201127002248 34 182 9.0 11.0 0.00 0.07 0.07 1 1021.3
20201127001746 35 203 7.0 11.0 0.00 0.07 0.07 1 1021.0
20201127001245 35 188 7.0 13.0 0.00 0.07 0.07 1 1021.0
20201127000745 35 188 10.0 13.0 0.00 0.07 0.07 1 1021.0
20201127000257 36 195 8.0 11.0 0.00 0.07 0.07 1 1021.0
20201126235743 36 192 8.0 11.0 0.00 0.07 0.07 1 1021.0
20201126235242 36 185 6.0 11.0 0.00 0.07 0.07 1 1021.0
20201126234741 36 187 9.0 11.0 0.00 0.07 0.07 1 1021.0
20201126234240 36 175 8.0 11.0 0.00 0.07 0.07 1 1021.0
20201126233739 37 180 6.0 10.0 0.00 0.07 0.07 1 1021.0
20201126233238 37 190 8.0 10.0 0.00 0.07 0.07 1 1021.0
20201126232737 37 190 8.0 11.0 0.00 0.07 0.07 1 1021.0
20201126232242 38 206 8.0 11.0 0.00 0.07 0.07 1 1021.0
20201126231735 38 210 8.0 11.0 0.00 0.07 0.07 1 1021.0
20201126231234 38 203 7.0 9.0 0.00 0.07 0.07 1 1021.0
20201126230734 39 193 7.0 9.0 0.00 0.07 0.07 1 1020.7
20201126230233 39 180 6.0 11.0 0.00 0.07 0.07 1 1020.7
20201126225733 39 193 8.0 11.0 0.00 0.07 0.07 1 1020.7
20201126225233 39 188 6.0 13.0 0.00 0.07 0.07 1 1020.7
20201126224730 39 180 9.0 13.0 0.00 0.07 0.07 1 1020.7
20201126224231 39 192 9.0 12.0 0.00 0.07 0.07 1 1020.7
20201126223730 39 193 10.0 12.0 0.00 0.07 0.07 1 1020.7
20201126223227 38 185 8.0 11.0 0.00 0.07 0.07 1 1020.7
20201126222729 38 194 10.0 12.0 0.00 0.07 0.07 1 1020.3
20201126222228 38 186 10.0 12.0 0.00 0.07 0.07 1 1020.3
20201126221725 38 188 10.0 13.0 0.00 0.07 0.07 1 1020.7
20201126221226 38 195 10.0 13.0 0.00 0.07 0.07 1 1020.7
20201126220724 38 207 9.0 11.0 0.00 0.07 0.07 1 1020.7
20201126220222 38 207 9.0 11.0 0.00 0.07 0.07 1 1020.7
20201126215723 38 207 8.0 12.0 0.00 0.07 0.07 1 1020.7
20201126215221 39 224 9.0 12.0 0.00 0.07 0.07 1 1020.7
20201126214720 39 219 9.0 12.0 0.00 0.07 0.07 1 1020.7
20201126214220 39 217 11.0 13.0 0.00 0.07 0.07 1 1020.7
20201126213719 39 225 12.0 13.0 0.00 0.07 0.07 1 1020.7
20201126213220 38 223 10.0 13.0 0.00 0.07 0.07 1 1020.7
20201126212720 38 205 12.0 13.0 0.00 0.07 0.07 1 1020.7
20201126212218 38 205 11.0 13.0 0.00 0.07 0.07 1 1020.7
20201126211717 38 210 10.0 14.0 0.00 0.07 0.07 1 1020.3
20201126211217 38 211 11.0 14.0 0.00 0.07 0.07 1 1020.7
20201126210722 38 208 11.0 15.0 0.00 0.07 0.07 1 1020.3
20201126210217 38 218 11.0 15.0 0.00 0.07 0.07 1 1020.3
20201126205711 39 207 10.0 15.0 0.00 0.07 0.07 1 1020.3
20201126205214 39 203 12.0 15.0 0.00 0.07 0.07 1 1020.3
20201126204710 39 203 12.0 15.0 0.00 0.07 0.07 1 1020.3
20201126204207 39 203 13.0 15.0 0.00 0.07 0.07 1 1020.7
20201126203708 39 203 13.0 14.0 0.00 0.07 0.07 1 1020.3
20201126203208 39 205 12.0 15.0 0.00 0.07 0.07 1 1020.3
20201126202707 39 208 13.0 15.0 0.00 0.07 0.07 1 1020.7
20201126202208 40 211 14.0 15.0 0.00 0.07 0.07 1 1020.7
20201126201703 40 210 12.0 16.0 0.00 0.07 0.07 1 1020.7
20201126201207 40 210 13.0 16.0 0.00 0.07 0.07 1 1020.7
20201126200702 40 220 13.0 16.0 0.00 0.07 0.07 1 1020.7
20201126200159 39 208 14.0 16.0 0.00 0.07 0.07 1 1020.7
20201126195659 39 212 12.0 15.0 0.00 0.07 0.07 1 1020.7
20201126195157 39 203 14.0 16.0 0.00 0.07 0.07 1 1020.7
20201126194713 39 213 13.0 16.0 0.01 0.07 0.07 1 1020.7
20201126194157 38 206 11.0 16.0 0.01 0.07 0.07 1 1020.7
20201126193654 38 209 12.0 14.0 0.02 0.07 0.07 1 1020.3
20201126193155 37 205 12.0 16.0 0.02 0.07 0.07 1 1020.7
20201126192652 37 213 13.0 16.0 0.02 0.07 0.07 1 1020.7
20201126192156 38 207 11.0 13.0 0.03 0.07 0.07 1 1020.7
20201126191650 38 203 11.0 13.0 0.04 0.07 0.07 1 1020.7
20201126191149 38 207 11.0 12.0 0.04 0.07 0.07 1 1020.7
20201126190649 38 208 11.0 12.0 0.04 0.07 0.07 1 1020.7
20201126190148 38 208 11.0 12.0 0.04 0.07 0.07 1 1020.7
20201126185647 38 210 10.0 12.0 0.04 0.07 0.07 1 1020.7
20201126185145 38 179 6.0 13.0 0.05 0.07 0.07 1 1020.7
20201126184645 38 193 9.0 14.0 0.04 0.06 0.06 1 1020.7
20201126184144 37 203 12.0 15.0 0.04 0.06 0.06 1 1020.7
20201126183643 37 209 13.0 15.0 0.04 0.05 0.05 1 1020.7
20201126183144 37 203 13.0 14.0 0.04 0.05 0.05 1 1020.7
20201126182645 37 205 13.0 15.0 0.04 0.05 0.05 1 1020.7
20201126182144 36 203 12.0 15.0 0.03 0.04 0.04 1 1020.7
20201126181641 36 203 12.0 13.0 0.02 0.03 0.03 1 1020.7
20201126181138 35 203 11.0 13.0 0.03 0.03 0.03 1 1020.7
20201126180639 35 205 12.0 13.0 0.03 0.03 0.03 1 1020.7
20201126180136 35 208 11.0 13.0 0.03 0.03 0.03 1 1020.7
20201126175636 35 203 10.0 13.0 0.03 0.03 0.03 1 1020.7
20201126175138 35 200 10.0 11.0 0.02 0.02 0.02 1 1020.3
20201126174633 35 188 9.0 12.0 0.02 0.02 0.02 1 1020.3
20201126174133 34 187 11.0 12.0 0.02 0.02 0.02 1 1020.3
20201126173632 34 196 9.0 12.0 0.01 0.01 0.01 1 1020.3
20201126173132 34 173 9.0 12.0 0.01 0.01 0.01 1 1020.3
20201126172630 34 182 10.0 11.0 0.01 0.01 0.01 1 1020.3
20201126172129 34 173 7.0 8.0 0.01 0.01 0.01 1 1020.3
20201126171628 34 172 7.0 9.0 0.01 0.01 0.01 1 1020.3
20201126171127 34 163 7.0 9.0 0.00 0.00 0.00 1 1020.0
20201126170626 35 173 8.0 11.0 0.00 0.00 0.00 1 1020.0
20201126170127 34 158 9.0 13.0 0.00 0.00 0.00 1 1020.0
20201126165623 34 183 8.0 14.0 0.00 0.00 0.00 1 1020.0
20201126165122 34 180 9.0 14.0 0.00 0.00 0.00 1 1020.0
20201126164621 34 172 12.0 14.0 0.00 0.00 0.00 1 1020.0
20201126164117 33 175 8.0 11.0 0.00 0.00 0.00 1 1020.0
20201126163617 33 171 7.0 9.0 0.00 0.00 0.00 1 1019.6
20201126163117 33 168 5.0 10.0 0.00 0.00 0.00 1 1020.0
20201126162616 33 161 8.0 11.0 0.00 0.00 0.00 1 1020.0
20201126162113 32 189 6.0 11.0 0.00 0.00 0.00 1 1020.0
20201126161612 32 178 8.0 11.0 0.00 0.00 0.00 1 1019.6
20201126161111 32 165 8.0 11.0 0.00 0.00 0.00 1 1019.6
20201126160610 32 184 8.0 12.0 0.00 0.00 0.00 1 1019.6
20201126160110 31 181 10.0 12.0 0.00 0.00 0.00 1 1019.6
20201126155610 31 195 9.0 13.0 0.00 0.00 0.00 1 1019.6
20201126155107 31 203 8.0 13.0 0.00 0.00 0.00 1 1019.6
20201126154714 31 203 12.0 13.0 0.00 0.00 0.00 1 1019.6
20201126154108 31 203 12.0 13.0 0.00 0.00 0.00 1 1019.6
20201126153605 31 221 11.0 13.0 0.00 0.00 0.00 1 1019.6
20201126153115 31 207 12.0 14.0 0.00 0.00 0.00 1 1019.3
20201126152603 31 205 13.0 14.0 0.00 0.00 0.00 1 1019.3
20201126152105 31 210 11.0 13.0 0.00 0.00 0.00 1 1019.3
20201126151601 31 203 11.0 13.0 0.00 0.00 0.00 1 1019.3
20201126151104 31 207 10.0 13.0 0.00 0.00 0.00 1 1019.3
20201126150600 31 195 12.0 13.0 0.00 0.00 0.00 1 1019.3
20201126150104 31 203 12.0 13.0 0.00 0.00 0.00 1 1019.3
20201126145558 31 204 11.0 12.0 0.00 0.00 0.00 1 1019.3
20201126145057 31 203 11.0 12.0 0.00 0.00 0.00 1 1019.3
20201126144559 31 203 11.0 12.0 0.00 0.00 0.00 1 1019.0
20201126144055 30 203 8.0 11.0 0.00 0.00 0.00 1 1019.3
20201126143554 30 203 9.0 11.0 0.00 0.00 0.00 1 1019.0
20201126143103 30 205 8.0 9.0 0.00 0.00 0.00 1 1019.0
20201126142552 29 203 8.0 9.0 0.00 0.00 0.00 1 1019.0
20201126142051 29 203 9.0 10.0 0.00 0.00 0.00 1 1019.0
20201126141550 28 203 9.0 10.0 0.00 0.00 0.00 1 1019.0
20201126141050 27 203 9.0 10.0 0.00 0.00 0.00 1 1019.0
20201126140552 28 203 9.0 10.0 0.00 0.00 0.00 1 1019.0
20201126140112 28 214 7.0 9.0 0.00 0.00 0.00 1 1019.0
20201126135546 29 203 8.0 9.0 0.00 0.00 0.00 1 1019.0
20201126135045 29 203 7.0 8.0 0.00 0.00 0.00 1 1019.0
20201126134544 29 203 7.0 8.0 0.00 0.00 0.00 1 1019.0
20201126134052 30 203 6.0 9.0 0.00 0.00 0.00 1 1019.0
20201126133543 29 193 7.0 10.0 0.00 0.00 0.00 1 1018.6
20201126133042 29 197 8.0 10.0 0.00 0.00 0.00 1 1018.6
20201126132541 29 197 6.0 7.0 0.00 0.00 0.00 1 1018.6
20201126132045 29 180 6.0 7.0 0.00 0.00 0.00 1 1018.3
20201126131539 29 161 6.0 10.0 0.00 0.00 0.00 1 1018.3
20201126131058 29 158 7.0 10.0 0.00 0.00 0.00 1 1018.3
20201126130540 29 158 7.0 10.0 0.00 0.00 0.00 1 1018.3
20201126130051 28 159 6.0 9.0 0.00 0.00 0.00 1 1017.9
20201126125536 28 158 7.0 8.0 0.00 0.00 0.00 1 1017.9
20201126125034 28 166 5.0 7.0 0.00 0.00 0.00 1 1017.9
20201126124533 28 165 6.0 9.0 0.00 0.00 0.00 1 1017.9
20201126124035 29 180 6.0 9.0 0.00 0.00 0.00 1 1017.9
20201126123532 29 180 8.0 9.0 0.00 0.00 0.00 1 1017.9
20201126123032 29 180 8.0 9.0 0.00 0.00 0.00 1 1017.9
20201126122531 29 198 7.0 9.0 0.00 0.00 0.00 1 1017.9
20201126122033 29 188 7.0 10.0 0.00 0.00 0.00 1 1018.3
20201126121530 29 203 8.0 10.0 0.00 0.00 0.00 1 1017.9
20201126121028 29 203 8.0 9.0 0.00 0.00 0.00 1 1017.9
20201126120528 30 200 8.0 9.0 0.00 0.01 0.00 1 1017.9
20201126120029 30 203 8.0 10.0 0.00 0.01 0.00 1 1017.9
20201126115533 30 203 9.0 10.0 0.00 0.01 0.00 1 1017.9
20201126115026 30 203 9.0 10.0 0.00 0.01 0.00 1 1017.9
20201126114533 30 203 10.0 10.0 0.00 0.01 0.00 1 1017.6
20201126114023 30 203 9.0 11.0 0.00 0.01 0.00 1 1017.6
20201126113526 30 203 10.0 11.0 0.00 0.01 0.00 1 1017.6
20201126113036 30 203 11.0 11.0 0.00 0.01 0.00 1 1017.6
20201126112526 30 210 11.0 11.0 0.00 0.01 0.00 1 1017.9
20201126112022 30 205 10.0 11.0 0.00 0.01 0.00 1 1017.9
20201126111521 30 224 10.0 11.0 0.00 0.01 0.00 1 1017.9
20201126111026 30 225 11.0 12.0 0.00 0.01 0.00 1 1017.9
20201126110522 30 230 11.0 12.0 0.00 0.01 0.00 1 1017.9
20201126110047 30 225 10.0 11.0 0.00 0.01 0.00 1 1017.9
20201126105521 29 220 9.0 10.0 0.00 0.01 0.00 1 1017.9
20201126105022 29 230 10.0 11.0 0.00 0.01 0.00 1 1017.9
20201126104514 29 225 10.0 11.0 0.00 0.01 0.00 1 1017.9
20201126104015 28 225 10.0 11.0 0.00 0.01 0.00 1 1017.9
20201126103512 27 225 10.0 10.0 0.00 0.01 0.00 1 1017.9
20201126103019 27 225 9.0 10.0 0.00 0.01 0.00 1 1017.9
20201126102512 27 225 10.0 11.0 0.00 0.01 0.00 1 1017.6
20201126102022 27 225 10.0 11.0 0.00 0.01 0.00 1 1017.6
20201126101512 27 225 11.0 11.0 0.00 0.01 0.00 1 1017.6
20201126101018 27 225 10.0 11.0 0.00 0.01 0.00 1 1017.3
20201126100516 28 223 10.0 11.0 0.00 0.01 0.00 1 1017.3
20201126100011 28 225 11.0 12.0 0.00 0.01 0.00 1 1017.3
20201126095513 28 225 11.0 12.0 0.00 0.01 0.00 1 1017.3
20201126095020 29 225 11.0 12.0 0.00 0.01 0.00 1 1017.3
20201126094513 29 225 11.0 12.0 0.00 0.01 0.00 1 1017.3
20201126094008 29 229 11.0 12.0 0.00 0.01 0.00 1 1017.3
20201126093507 30 225 11.0 11.0 0.00 0.01 0.00 1 1017.3
20201126093005 30 225 11.0 11.0 0.00 0.01 0.00 1 1017.3
20201126092459 31 225 11.0 11.0 0.00 0.01 0.00 1 1017.3
20201126091958 31 238 11.0 11.0 0.00 0.01 0.00 1 1017.3
20201126091457 31 225 11.0 12.0 0.00 0.01 0.00 1 1017.3
20201126090959 31 225 11.0 12.0 0.00 0.01 0.00 1 1017.3
20201126090456 31 225 11.0 11.0 0.00 0.01 0.00 1 1017.3
20201126085959 31 227 11.0 11.0 0.00 0.01 0.00 1 1017.3
20201126085456 31 224 10.0 11.0 0.00 0.01 0.00 1 1016.9
20201126084953 30 223 10.0 11.0 0.00 0.01 0.00 1 1016.9
20201126084452 30 220 10.0 11.0 0.00 0.01 0.00 1 1016.9
20201126083951 30 205 9.0 10.0 0.00 0.01 0.00 1 1016.9
20201126083451 30 205 9.0 10.0 0.00 0.01 0.00 1 1016.9
20201126082949 29 225 9.0 11.0 0.00 0.01 0.00 1 1017.3
20201126082449 29 213 10.0 11.0 0.00 0.01 0.00 1 1016.9
20201126081949 29 210 10.0 11.0 0.00 0.01 0.00 1 1016.9
20201126081446 30 218 11.0 11.0 0.00 0.01 0.00 1 1016.9
20201126080946 30 223 10.0 11.0 0.00 0.01 0.00 1 1017.3
20201126080445 30 225 10.0 11.0 0.00 0.01 0.00 1 1016.9
20201126075948 30 225 9.0 10.0 0.00 0.01 0.01 1 1016.9
20201126075443 30 225 10.0 10.0 0.00 0.01 0.01 1 1016.9
20201126074943 30 225 10.0 10.0 0.00 0.01 0.01 1 1016.9
20201126074444 29 225 9.0 10.0 0.00 0.01 0.01 1 1016.9
20201126073939 29 225 8.0 9.0 0.00 0.01 0.01 1 1016.9
20201126073438 29 225 9.0 9.0 0.00 0.01 0.01 1 1016.9
20201126072941 30 203 7.0 9.0 0.00 0.01 0.01 1 1016.9
20201126072437 30 203 7.0 9.0 0.00 0.01 0.01 1 1016.6
20201126071935 31 203 8.0 9.0 0.00 0.01 0.01 1 1016.6
20201126071435 31 205 8.0 9.0 0.00 0.01 0.01 1 1016.6
20201126070933 31 225 9.0 10.0 0.00 0.01 0.01 1 1016.6
20201126070433 31 225 9.0 10.0 0.00 0.01 0.01 1 1016.6
20201126065934 31 225 8.0 9.0 0.00 0.01 0.01 1 1016.6
20201126065430 31 227 7.0 8.0 0.00 0.01 0.01 1 1016.6
20201126064934 31 180 4.0 5.0 0.00 0.01 0.01 1 1016.3
20201126064432 31 180 3.0 5.0 0.00 0.01 0.01 1 1016.3
20201126063927 31 180 4.0 5.0 0.00 0.01 0.01 1 1016.3
20201126063427 30 180 3.0 5.0 0.00 0.01 0.01 1 1016.3
20201126062931 30 180 4.0 5.0 0.00 0.01 0.01 1 1016.3
20201126062428 30 180 4.0 5.0 0.00 0.01 0.01 1 1016.3
20201126061926 30 180 4.0 5.0 0.00 0.01 0.01 1 1016.3
20201126061425 29 180 5.0 5.0 0.00 0.01 0.01 1 1016.3
20201126060922 28 180 4.0 5.0 0.00 0.01 0.01 1 1016.3
20201126060421 28 180 5.0 5.0 0.00 0.01 0.01 1 1016.3
20201126055922 27 203 4.0 5.0 0.00 0.01 0.01 1 1016.3
20201126055418 28 203 5.0 6.0 0.00 0.01 0.01 1 1016.3
20201126054918 28 203 5.0 7.0 0.00 0.01 0.01 1 1016.3
20201126054417 28 203 7.0 7.0 0.00 0.01 0.01 1 1016.3
20201126053916 29 203 6.0 7.0 0.00 0.01 0.01 1 1016.3
20201126053415 29 210 6.0 6.0 0.00 0.01 0.01 1 1015.9
20201126052914 30 225 6.0 7.0 0.00 0.01 0.01 1 1015.9
20201126052417 30 225 6.0 7.0 0.00 0.01 0.01 1 1015.9
20201126051914 31 225 5.0 6.0 0.00 0.01 0.01 1 1015.9
20201126051410 31 225 4.0 5.0 0.00 0.01 0.01 1 1015.9
20201126050910 31 221 5.0 5.0 0.00 0.01 0.01 1 1015.9
20201126050409 31 222 4.0 5.0 0.00 0.01 0.01 1 1015.6
20201126045908 31 225 5.0 6.0 0.00 0.01 0.01 1 1015.6
20201126045407 31 225 5.0 6.0 0.00 0.01 0.01 1 1015.6
20201126044906 32 225 6.0 6.0 0.00 0.01 0.01 1 1015.6
20201126044411 32 225 6.0 6.0 0.00 0.01 0.01 1 1015.6
20201126043905 32 239 6.0 6.0 0.00 0.01 0.01 1 1015.2
20201126043403 32 225 5.0 6.0 0.00 0.01 0.01 1 1015.2
20201126042904 32 225 6.0 7.0 0.00 0.01 0.01 1 1015.2
20201126042401 32 225 6.0 7.0 0.00 0.01 0.01 1 1015.2
20201126041858 31 227 6.0 6.0 0.00 0.01 0.01 1 1015.2
20201126041358 31 225 6.0 6.0 0.00 0.01 0.01 1 1015.2
20201126040904 31 338 5.0 5.0 0.00 0.01 0.01 1 1015.2
20201126040355 31 338 4.0 5.0 0.00 0.01 0.01 1 1015.2
20201126035855 30 338 4.0 4.0 0.00 0.01 0.01 1 1015.2
20201126035353 30 338 2.0 3.0 0.00 0.01 0.01 1 1015.2
20201126034853 29 338 1.0 3.0 0.00 0.01 0.01 1 1014.9
20201126034352 29 338 2.0 3.0 0.00 0.01 0.01 1 1014.9
20201126033849 28 338 2.0 3.0 0.00 0.01 0.01 1 1014.9
20201126033348 28 338 2.0 3.0 0.00 0.01 0.01 1 1014.6
20201126032848 28 338 2.0 3.0 0.00 0.01 0.01 1 1014.6
20201126032347 28 338 0.0 0.0 0.00 0.01 0.01 1 1014.6
20201126031848 29 338 0.0 0.0 0.00 0.01 0.01 1 1014.6
20201126031346 29 338 0.0 0.0 0.00 0.01 0.01 1 1014.6
20201126030843 30 338 0.0 0.0 0.00 0.01 0.01 1 1014.6
20201126030342 30 338 0.0 0.0 0.00 0.01 0.01 1 1014.6
20201126025843 31 338 0.0 0.0 0.00 0.01 0.01 1 1014.6
20201126025343 31 338 0.0 0.0 0.00 0.01 0.01 1 1014.6
20201126024839 31 338 0.0 0.0 0.00 0.01 0.01 1 1014.6
20201126024338 31 338 0.0 0.0 0.00 0.01 0.01 1 1014.6
20201126023837 32 338 0.0 0.0 0.00 0.01 0.01 1 1014.6
20201126023337 32 338 0.0 0.0 0.00 0.01 0.01 1 1014.6
20201126022836 32 338 0.0 0.0 0.00 0.01 0.01 1 1014.2
20201126022333 32 338 0.0 0.0 0.00 0.01 0.01 1 1014.2
20201126021839 32 338 0.0 0.0 0.00 0.01 0.01 1 1014.2
20201126021338 32 338 0.0 0.0 0.00 0.01 0.01 1 1014.2
20201126020831 32 338 0.0 0.0 0.00 0.01 0.01 1 1014.2